カタログに戻る

STARLINK-34145

運用中通信VLEO
NORAD 64110·PAYLOAD·🇺🇸 United States

打ち上げ May 23, 2025 から Vandenberg Space Force Base

Loading…

次のパス (今後24時間)

TLE

最新Source: CelesTrak SupGP

元期: Sep 14, 2026, 22:53 UTC

1 64110C 25110Q   26257.95395833  .00011864  00000+0  35026-3 0  2573
2 64110  53.1578 223.5416 0001219  89.5726  54.2444 15.34408409    18

AllMySatでSTARLINK-34145をリアルタイム追跡

Download on the App Store